User: anonymous   Login
Location: Caltech
(34.1382°N, 118.1253°W)
Time: 01:46:34
(UTC-07:00)
Language:

COSMOS 2428 - Orbit

View from above orbital plane
View from above orbital plane
View from above satellite
View from above satellite

Ground track
Ground track

The orbit data is extracted from the following two-line orbital elements,

1 31792U 07029A   15115.20770314  .00000048  00000-0  51404-4 0  9997
2 31792 070.9834 256.0885 0006304 002.6093 079.7486 14.12544695403371
Epoch (UTC): 25 April 2015 04:59:05
Eccentricity: 0.0006304
inclination: 70.9834°
perigee height: 846 km
apogee height: 855 km
right ascension of ascending node: 256.0885°
argument of perigee: 2.6093°
revolutions per day: 14.12544695
mean anomaly at epoch: 79.7486°
orbit number at epoch: 40337

The dashed part of the orbit path shows where the satellite is in the earth's shadow,  

DLR